Погода в Чернигове

Погода в Чернигове : погода сейчас, прогноз погоды и архив. Всё, что Вы хотите узнать о погоде в Чернигове!

Хотите узнать прогноз погоды в Чернигове? Тогда Вам сюда: Погода в Чернигове

Поиск расширенной информации на нашем сайте:

Полезная информация:

Другие новости

Новости СМИ2

Главная страница сайта

Новости сайта

03.07.2017

Напоминаем, что на нашем специализированном сайте Метеоцентр.Азия вы можете получить высокодетализированные автоматические прогнозы погоды по пунктам России, СНГ и мира в авиационном формате (включающие направление и скорость ветра, видимость, явления погоды, количество и форму облачности, нижнюю и верхнюю границу облачности).

Рекомендуем:

Погода в Чернигове - сегодня

Время (UTC), дата Ветер
(°,м/с) 
Видим.   Явления Облачность Т
(°С)
Тd
(°С)
f(%) Тe
(°С)
Pmin
(гПа)
dP
(гПа)
Po
(мм)
O2
(г/м3)
Тmin Tmax R s Состояние
почвы
12 15.07.19 340 (С) 10 км  в посл. час ливневой дождь  9/8 960 м кучево-дожд., средняя 
[Cb calv|Ac und]
+17.4 +14.6 84 +26  1010.3  0.1  747  280           
15 15.07.19 340 (С) 10 км  в посл. час ливневой дождь  10/6 1020 м кучево-дожд., средняя 
[Cb calv|Ac und]
+17.5 +15.3 87 +27  1010.4  0.1  747  280           
18 15.07.19 тихо ()   10 км  в посл. час ливневой дождь  8/5 1000 м кучево-дожд., верхняя 
[Cb calv|Ci fib]
+17.1 +14.7 86 +25  1010.1  -0.3  747  280    +18.4     
21 15.07.19 тихо ()   н/о    6/3 1000 м средняя, верхняя 
[Sc|Ac trans|Ci fib]
+15.4 +13.1 86 +21  1010.3  0.1  747  282           
00 16.07.19 360 (С) н/о  дымка  3/0 верхняя 
[Ci fib]
+13.6 +12.9 96 +20  1010.2  -0.2  747  284           
03 16.07.19 350 (С) 0500 м  туман  ?/?  
+13.8 +13.8 100 +21  1010.2  0.1  747  284           
06 16.07.19 360 (С) 10 км  {туман}  9/9 300 м 
[St]
+16.2 +14.3 89 +25  1010.2  0.1  747  281  +12.5         
09 16.07.19 360 (С) 20000 м    4/4 1000 м 
[Cu hum]
+20.8 +11.7 56 +24  1009.4  -0.6  747  277           
12 16.07.19 360 (С) 20000 м    8/8 1000 м 
[Cu med, cong]
+23.6 +10 42 +25  1008.1  -1.2  746  275           
15 16.07.19 320 (СЗ) 20000 м    3/3 1000 м 
[Cu hum]
+24 +10.5 43 +26  1007.3  -0.7  745  274           
18 16.07.19 тихо ()   10 км    3/3 1000 м 
[Sc diur, vesp]
+19.6 +15.4 77 +29  1007.7  0.2  745  277    +24.3       
21 16.07.19 тихо ()   н/о    ясно 
+13.8 +11.8 88 +18  1007.9  -0.1  745  284           
00 17.07.19 тихо ()   н/о  дымка  8/0 средняя, верхняя 
[Ac trans|Ci fib]
+13.4 +11.9 91 +17  1007  -0.9  745  284           
03 17.07.19 тихо ()   4000 м  дымка  9/0 средняя, верхняя 
[Ac trans|Cs]
+12.2 +11.1 93 +15  1006.4  -0.7  744  285           
06 17.07.19 280 (З) 10 км  {ливн. осадки}  10/3 1000 м кучево-дожд., средняя 
[Cb cap|Ac As]
+15.7 +12.2 80 +20  1006.7  0.5  744  281  +11.6    0.0     
09 17.07.19 260 (З) 10 км    10/6 1230 м кучево-дожд., средняя 
[Cb calv|As op]
+19.5 +12.2 63 +24  1006.6  0.1  745  278           
12 17.07.19 240 (ЮЗ) 20000 м  {ливн. осадки}  8/4 1000 м средняя 
[Cu med, cong|Ac trans]
+21.2 +10 49 +23  1005.8  -0.7  744  276      0.3     
15 17.07.19 330 (СЗ) 10 км    10/8 1300 м кучево-дожд., средняя 
[Cb calv|Ac und]
+17 +10.5 66 +19  1006.1  0.1  744  280           
18 17.07.19 тихо ()   10 км  дымка{гроза, ливн. осадки}  10/3 1000 м кучево-дожд., средняя 
[Cb calv|Ac und]
+14.6 +13.7 94 +21  1006.6  0.3  744  282    +22.2     
21 17.07.19 320 (СЗ) н/о  слаб. ливневой дождь  10/5 1200 м кучево-дожд., средняя 
[Cb calv|Ac und]
+14.4 +13.7 96 +22  1007.2  0.6  745  282           
00 18.07.19 300 (СЗ) н/о  дымка{ливн. осадки}  8/4 1000 м средняя 
[Sc|Ac trans]
+11.9 +11.3 96 +16  1007.3  745  285      0.3     
03 18.07.19 280 (З) 4000 м  дымка  10/4 1000 м средняя 
[Sc|Ac und]
+12.9 +12.2 96 +17  1007.8  0.5  745  284           
06 18.07.19 240 (ЮЗ) 10 км    3/0 средняя, верхняя 
[Ac trans|Ci fib]
+16 +13 82 +22  1008.2  0.6  746  281  +11.4    0.3     
09 18.07.19 250 (З) 10 км  слаб. ливневой дождь  9/8 870 м кучево-дожд., верхняя 
[Cb calv|Ci fib]
+18 +10.4 61 +20  1008.3  0.2  746  280           
12 18.07.19 270 (З) 10 км  в посл. час ливневой дождь  9/8 1000 м кучево-дожд., верхняя 
[Cb calv|Ci]
+19.8 +13.7 68 +27  1008.4  0.2  746  277      0.3     
Время (UTC), дата Ветер
(°,м/с) 
Видим.   Явления Облачность Т
(°С)
Тd
(°С)
f(%) Тe
(°С)
Pmin
(гПа)
dP
(гПа)
Po
(мм)
O2
(г/м3)
Тmin Tmax R s Состояние
почвы

Для получения пояснительной информации подведите курсор к названию столбца.

ПОГОДА в Чернигове - архив

Всё, что Вы хотите узнать о погоде в Чернигове - удобно и подробно!

Выберите нужную дату (начиная с 1 января 2018* года) и нажмите кнопку "Найти".
Будут отображены архивные сводки погоды по пункту Чернигов, начиная с указанной даты.


Отображать данные в формате CSV (для использования в таблицах Excel)


Внимание! Наш архив погоды предназначен исключительно для личного некоммерческого использования в познавательных целях. Если Вам необходимы официальные справки о состоянии погоды (для производственных, юридических, коммерческих и т.п. целей), обращайтесь в органы Росгидромета.

*Примечание: данная дата относится к архиву по метеостанциям СССР (Россия, СНГ, Балтия).
Архив по метеостанциям Зарубежной Европы и Азии (кроме Китая) хранится 10 дней, по другим регионам земного шара (Китай, Африка, Америка, Австралия, Океания) - 1 день.

Чернигов - район местоположения метеостанции


Название, широта, долгота, высота метеостанции:
Чернигов 51.5°ш. 31.2°д. 141 м над ур. моря [Украина]

Дополнительная информация

В oтличие oт бoльшинства пoгoдных сайтoв мы публикуем пoдрoбную метеoинфoрмацию в детальнoм прoфессиoнальнoм фoрмате.

Характеристики температуры и влажнoсти вoздуха измеряются на высoте 2 м в тени вдали oт зданий и деревьев.
Скoрoсть ветра измеряется на высoте 10 м (на урoвне рoста челoвека скoрoсть ветра ниже в 1.5-2 раза). Если метеoстанция нахoдится в гoрoде или в лесу, тo скoрoсть ветра занижена на 2-4 м/с пo сравнению с oткрытым местoм. Скoрoсть ветра над акватoриями крупных рек и oзёр, а также на вершинах хoлмoв на 2-5 м/с выше, чем в oбычных услoвиях.
Атмoсфернoе давление в разных тoчках местнoсти мoжет значительнo oтличаться oт давления на метеoстанции, в зависимoсти oт услoвий рельефа (при пoдъёме на 10 м давление пoнижается примернo на 1 мм рт.ст.).